Redmond, OR

2:16 PM PDT on September 30, 2016 (GMT -0700)
Roberts Field Airport

Weather History for KRDM - January, 2013

Change the Weather History Date:

Monday, January 7, 2013

  Actual Average Record
Temperature  
Mean Temperature 41 °F 32 °F  
Max Temperature 50 °F 41 °F 60 °F (1983)
Min Temperature 31 °F 22 °F -11 °F (1979)
Degree Days  
Heating Degree Days 24 33  
Month to date heating degree days 290 236  
Since 1 July heating degree days 2848 3076  
Cooling Degree Days 0 0  
Month to date cooling degree days 0 0  
Year to date cooling degree days 0 0  
Moisture  
Dew Point 29 °F    
Average Humidity 69    
Maximum Humidity 85    
Minimum Humidity 52    
Precipitation  
Precipitation 0.00 in 0.04 in 0.51 in (1990)
Month to date precipitation 0.01 0.25  
Year to date precipitation 0.01 0.25  
Sea Level Pressure  
Sea Level Pressure 30.11 in    
Wind  
Wind Speed 5 mph (NE)    
Max Wind Speed 31 mph    
Max Gust Speed 39 mph    
Visibility 10 miles    
Events      
T = Trace of Precipitation, MM = Missing Value Source: NWS Daily Summary

Daily Weather History Graph

Daily Weather History Graph

Search for Another Location

Airport or City:

Trip Planner

Search our weather history database for the weather conditions in past years. The results will help you decide how hot, cold, wet, or windy it might be!

Date:

Astronomy

Jan. 07, 2013 Rise Set
Actual Time 7:39 AM PST 4:42 PM PST
Civil Twilight 7:06 AM PST 5:15 PM PST
Nautical Twilight 6:30 AM PST 5:51 PM PST
Astronomical Twilight 5:55 AM PST 6:26 PM PST
Moon 3:07 AM PST (1/7) 12:59 PM PST (1/7)
Length of Visible Light 10h 08m
Length of Day
9h 03m
Waning Crescent, 21% of the Moon is Illuminated
Jan 7
Waning Crescent
Jan 11
New
Jan 18
First Quarter
Jan 26
Full
Feb 3
Last Quarter

Hourly Weather History & Observations

Time (PST) Temp. Windchill Dew Point Humidity Pressure Visibility Wind Dir Wind Speed Gust Speed Precip Events Conditions
12:56 AM 35.1 °F 28.6 °F 24.1 °F 64% 30.08 in 10.0 mi SE 8.1 mph - N/A   Overcast
1:56 AM 35.1 °F 32.2 °F 24.1 °F 64% 30.07 in 10.0 mi East 3.5 mph - N/A   Overcast
2:56 AM 32.0 °F 25.6 °F 24.1 °F 73% 30.10 in 10.0 mi East 6.9 mph - N/A   Overcast
3:56 AM 32.0 °F 26.4 °F 25.0 °F 75% 30.08 in 10.0 mi East 5.8 mph - N/A   Scattered Clouds
4:56 AM 30.9 °F 25.2 °F 27.0 °F 85% 30.09 in 10.0 mi ENE 5.8 mph - N/A   Mostly Cloudy
5:56 AM 33.1 °F 28.7 °F 28.0 °F 82% 30.09 in 10.0 mi ENE 4.6 mph - N/A   Mostly Cloudy
7:56 AM 32.0 °F 28.7 °F 27.0 °F 82% 30.07 in 10.0 mi Variable 3.5 mph - N/A   Mostly Cloudy
8:56 AM 35.1 °F 30.1 °F 28.9 °F 78% 30.09 in 10.0 mi East 5.8 mph - N/A   Scattered Clouds
9:56 AM 37.9 °F - 30.0 °F 73% 30.10 in 10.0 mi Calm Calm - N/A   Scattered Clouds
10:56 AM 39.9 °F 35.8 °F 30.0 °F 68% 30.11 in 10.0 mi East 5.8 mph - N/A   Partly Cloudy
11:56 AM 48.0 °F - 33.1 °F 56% 30.07 in 10.0 mi Calm Calm - N/A   Clear
12:56 PM 50.0 °F - 34.0 °F 54% 30.04 in 10.0 mi NW 10.4 mph 20.7 mph N/A   Clear
1:56 PM 48.0 °F - 33.1 °F 56% 30.06 in 10.0 mi WNW 18.4 mph 31.1 mph N/A   Clear
2:56 PM 46.9 °F - 33.1 °F 59% 30.10 in 10.0 mi West 5.8 mph - N/A   Clear
3:56 PM 46.0 °F 41.0 °F 32.0 °F 58% 30.14 in 10.0 mi WNW 10.4 mph - N/A   Partly Cloudy
4:56 PM 44.1 °F 40.1 °F 30.9 °F 60% 30.15 in 10.0 mi Variable 6.9 mph - N/A   Overcast
5:56 PM 45.0 °F 43.5 °F 28.9 °F 53% 30.13 in 10.0 mi NW 3.5 mph - N/A   Scattered Clouds
6:56 PM 41.0 °F 35.8 °F 28.9 °F 62% 30.15 in 10.0 mi NE 8.1 mph - N/A   Partly Cloudy
7:56 PM 42.1 °F 40.2 °F 28.9 °F 60% 30.15 in 10.0 mi SW 3.5 mph - N/A   Overcast
8:56 PM 44.1 °F - 28.0 °F 53% 30.15 in 10.0 mi Calm Calm - N/A   Overcast
9:56 PM 42.1 °F 40.2 °F 28.9 °F 60% 30.16 in 10.0 mi Variable 3.5 mph - N/A   Overcast
10:56 PM 41.0 °F - 30.0 °F 65% 30.16 in 10.0 mi Calm Calm - N/A   Overcast
11:56 PM 42.1 °F - 30.0 °F 62% 30.13 in 10.0 mi Calm Calm - N/A   Overcast